Tracking 19920 objects as of 15-Oct-2019
HD Live streaming from Space Station
objects crossing your sky now

INSAT 3A

Track INSAT 3A now!
INSAT 3A is classified as:


NORAD ID: 27714
Int'l Code: 2003-013A
Perigee: 35,879.1 km
Apogee: 35,974.1 km
Inclination: 3.0 °
Period: 1,442.9 minutes
Semi major axis: 42297 km
RCS: 22.0529 m2 (large)
Launch date: April 9, 2003
Source: India (IND)
Launch site: FRENCH GUIANA (FRGUI)

12 C-band, 6 extended C-band, 6 Ku-band for voice, video and data transmission to West Asia, East Asia, India; augment present INSAT capacity for communication and meteorological services.
aabbcc
Your satellite tracking list
Your tracking list is empty




NASA's NSSDC Master Catalog

Two Line Element Set (TLE):
1 27714U 03013A   19288.42522885 -.00000194  00000-0  00000+0 0  9996
2 27714   3.0008  83.0389 0011232 246.3720 305.4044  0.99799825 60462
Source of the keplerian elements: AFSPC